User: anonymous
Location: Oshawa
(43.9000°N, 78.8670°W)
Time: 04:50:04
(UTC-04:00)
Language:

SPOT 5 - Orbit

View from above orbital plane
View from above orbital plane
View from above satellite
View from above satellite

Ground track
Ground track

The orbit data is extracted from the following two-line orbital elements,

1 27421U 02021A   14238.38917534  .00000062  00000-0  49032-4 0  8707
2 27421 098.5569 299.2726 0001277 081.2721 012.2528 14.20108273638280
Epoch (UTC): 26 August 2014 09:20:24
Eccentricity: 0.0001277
inclination: 98.5569°
perigee height: 824 km
apogee height: 826 km
right ascension of ascending node: 299.2726°
argument of perigee: 81.2721°
revolutions per day: 14.20108273
mean anomaly at epoch: 12.2528°
orbit number at epoch: 63828

The dashed part of the orbit path shows where the satellite is in the earth's shadow,  

DLR